Regional Weather Roundup
Issued by NWS

Home | Current Version | Previous Version | Text Only | Print | Product List | Glossary On
Versions: 1 2 3 4 5 6 7 8 9 10 11 12 13 14 15 16 17 18 19 20 21 22 23 24 25 26 27 28 29 30 31 32 33 34 35 36 37 38 39 40 41 42 43 44 45 46 47 48 49 50
000
ASUS43 KTOP 302059
RWRKS

WEATHER ROUNDUP FOR KANSAS
NATIONAL WEATHER SERVICE GOODLAND KS
400 PM CDT WED JUL 30 2014

NOTE:  "FAIR" INDICATES FEW OR NO CLOUDS BELOW 12,000 FEET WITH NO
SIGNIFICANT WEATHER AND/OR OBSTRUCTIONS TO VISIBILITY.

KSZ001>006-013>018-027>032-041>047-302200-
NORTHWEST KANSAS

CITY           SKY/WX    TMP DP  RH WIND       PRES   REMARKS
GOODLAND       CLOUDY    70  55  59 E9        30.26F
HAYS           PTSUNNY   73  57  56 NE13      30.17R
HILL CITY      PTSUNNY   78  54  43 NE7       30.17F
RUSSELL        PTSUNNY   74  58  57 E6        30.14S
$$

KSZ061>065-074>080-084>089-302200-
SOUTHWEST KANSAS

CITY           SKY/WX    TMP DP  RH WIND       PRES   REMARKS
DODGE CITY     CLOUDY    65  60  84 NE17      30.16R
ELKHART          N/A     63  58  84 N13         N/A
GARDEN CITY    CLOUDY    66  60  81 NE17      30.18S
GREAT BEND       N/A     70  63  78 E10       30.14R
LIBERAL        CLOUDY    70  63  78 NE18      30.16S
$$

KSZ066>073-081>083-090>101-302200-
SOUTHEAST KANSAS

CITY           SKY/WX    TMP DP  RH WIND       PRES   REMARKS
CHANUTE        LGT RAIN  69  65  86 NE7       30.10S
COFFEYVILLE    LGT RAIN  71  68  90 E9        30.07F
HUTCHINSON     LGT RAIN  68  64  87 NE8       30.12R
NEWTON         CLOUDY    66  61  82 NE7       30.15S
PARSONS        LGT RAIN  69  66  90 VRB3      30.09F FOG
WICHITA INTL   LGT RAIN  68  65  90 NE12      30.09S FOG
WICHITA JABRA  LGT RAIN  67 N/A N/A NE8       30.10S
WICHITA MCCONL LGT RAIN  66  66 100 E12       30.10S
WINFIELD       LGT RAIN  69  68  96 E8        30.08S FOG
$$

KSZ007>012-019>026-033>040-048>060-102>105-302200-
NORTHEAST KANSAS

CITY           SKY/WX    TMP DP  RH WIND       PRES   REMARKS
CONCORDIA      MOSUNNY   78  57  48 E5        30.12F
EMPORIA        CLOUDY    68  63  84 NE3       30.12S
LAWRENCE       CLOUDY    79  58  48 NE6       30.09F
MANHATTAN      CLOUDY    77  57  50 S5        30.10F
OLATHE IND     CLOUDY    77  57  50 CALM      30.10F
OLATHE EXE     CLOUDY    76  58  53 SE3       30.09F
SALINA         CLOUDY    73  62  68 NE7       30.13S
TOPEKA BILLARD CLOUDY    80  54  40 CALM      30.09F
TOPEKA FORBES  CLOUDY    77  56  48 VRB7      30.10F
$$


USA.gov is the U.S. government's official web portal to all federal, state and local government web resources and services.